Time,TemperatureF,DewpointF,PressureIn,WindDirection,WindDirectionDegrees,WindSpeedMPH,WindSpeedGustMPH,Humidity,HourlyPrecipIn,Conditions,Clouds,dailyrainin,SoftwareType,DateUTC
2013-02-06 00:01:00,29.7,19.4,30.05,NW,315,0.0,7.1,65,0.00,,,0.00,WUHU216WMR100,2013-02-06 06:01:00,
2013-02-06 00:06:00,29.7,19.4,30.05,NW,315,4.8,6.6,65,0.00,,,0.00,WUHU216WMR100,2013-02-06 06:06:00,
2013-02-06 00:11:00,29.7,19.8,30.05,NNW,337,4.5,6.6,66,0.00,,,0.00,WUHU216WMR100,2013-02-06 06:11:00,
2013-02-06 00:16:00,29.5,19.6,30.05,North,0,8.1,8.1,66,0.00,,,0.00,WUHU216WMR100,2013-02-06 06:16:00,
2013-02-06 00:21:00,29.5,20.0,30.05,NNW,337,3.6,8.1,67,0.00,,,0.00,WUHU216WMR100,2013-02-06 06:21:00,
2013-02-06 00:26:00,29.5,20.0,30.08,WNW,292,4.5,8.1,67,0.00,,,0.00,WUHU216WMR100,2013-02-06 06:26:00,
2013-02-06 00:31:00,29.5,19.6,30.08,NW,314,3.3,5.6,66,0.00,,,0.00,WUHU216WMR100,2013-02-06 06:31:00,
2013-02-06 00:36:00,29.5,19.6,30.08,NNW,337,7.1,7.1,66,0.00,,,0.00,WUHU216WMR100,2013-02-06 06:36:00,
2013-02-06 00:41:00,29.5,19.6,30.08,NW,315,4.5,7.1,66,0.00,,,0.00,WUHU216WMR100,2013-02-06 06:41:00,
2013-02-06 00:46:00,29.5,19.6,30.08,NNW,337,7.1,7.1,66,0.00,,,0.00,WUHU216WMR100,2013-02-06 06:46:00,
2013-02-06 00:51:00,29.5,19.6,30.08,NNW,337,6.3,7.1,66,0.00,,,0.00,WUHU216WMR100,2013-02-06 06:51:00,
2013-02-06 00:55:00,29.5,19.2,30.08,NW,319,5.3,7.1,65,0.00,,,0.00,WUHU216WMR100,2013-02-06 06:55:00,
2013-02-06 01:00:00,29.5,19.2,30.08,NNW,337,4.7,6.3,65,0.00,,,0.00,WUHU216WMR100,2013-02-06 07:00:00,
2013-02-06 01:05:00,29.3,19.1,30.08,NNW,337,10.4,10.4,65,0.00,,,0.00,WUHU216WMR100,2013-02-06 07:05:00,
2013-02-06 01:10:00,29.3,19.1,30.08,NNW,327,6.9,10.4,65,0.00,,,0.00,WUHU216WMR100,2013-02-06 07:10:00,
2013-02-06 01:15:00,29.3,18.7,30.08,NW,315,5.6,10.4,64,0.00,,,0.00,WUHU216WMR100,2013-02-06 07:15:00,
2013-02-06 01:20:00,29.3,18.7,30.08,NW,315,3.5,7.8,64,0.00,,,0.00,WUHU216WMR100,2013-02-06 07:20:00,
2013-02-06 01:25:00,29.1,18.5,30.11,NW,315,4.5,5.6,64,0.00,,,0.00,WUHU216WMR100,2013-02-06 07:25:00,
2013-02-06 01:30:00,29.1,18.1,30.11,NNW,337,4.4,7.1,63,0.00,,,0.00,WUHU216WMR100,2013-02-06 07:30:00,
2013-02-06 01:35:00,29.1,17.8,30.11,NW,323,4.7,7.1,62,0.00,,,0.00,WUHU216WMR100,2013-02-06 07:35:00,
2013-02-06 01:40:00,29.1,17.8,30.11,North,0,3.3,6.3,62,0.00,,,0.00,WUHU216WMR100,2013-02-06 07:40:00,
2013-02-06 01:45:00,28.9,17.6,30.11,NNW,328,4.2,5.9,62,0.00,,,0.00,WUHU216WMR100,2013-02-06 07:45:00,
2013-02-06 01:50:00,28.9,17.6,30.11,NW,317,3.0,5.6,62,0.00,,,0.00,WUHU216WMR100,2013-02-06 07:50:00,
2013-02-06 01:55:00,28.8,17.8,30.11,NNW,337,3.3,5.6,63,0.00,,,0.00,WUHU216WMR100,2013-02-06 07:55:00,
2013-02-06 02:00:00,28.8,17.5,30.11,NNW,337,3.2,4.1,62,0.00,,,0.00,WUHU216WMR100,2013-02-06 08:00:00,
2013-02-06 02:05:00,28.8,17.5,30.11,NW,306,5.8,7.8,62,0.00,,,0.00,WUHU216WMR100,2013-02-06 08:05:00,
2013-02-06 02:10:00,28.8,17.1,30.11,NNW,344,3.7,7.8,61,0.00,,,0.00,WUHU216WMR100,2013-02-06 08:10:00,
2013-02-06 02:15:00,28.8,17.1,30.11,North,352,5.2,5.6,61,0.00,,,0.00,WUHU216WMR100,2013-02-06 08:15:00,
2013-02-06 02:20:00,28.6,16.9,30.11,NNW,327,3.8,5.9,61,0.00,,,0.00,WUHU216WMR100,2013-02-06 08:20:00,
2013-02-06 02:25:00,28.6,16.9,30.11,North,0,5.5,6.3,61,0.00,,,0.00,WUHU216WMR100,2013-02-06 08:25:00,
2013-02-06 02:30:00,28.6,16.9,30.11,NNW,337,3.1,6.3,61,0.00,,,0.00,WUHU216WMR100,2013-02-06 08:30:00,
2013-02-06 02:35:00,28.6,16.9,30.11,NNW,337,3.4,6.3,61,0.00,,,0.00,WUHU216WMR100,2013-02-06 08:35:00,
2013-02-06 02:40:00,28.6,16.9,30.11,NNW,337,4.5,6.3,61,0.00,,,0.00,WUHU216WMR100,2013-02-06 08:40:00,
2013-02-06 02:45:00,28.4,17.1,30.11,NNW,337,5.1,5.9,62,0.00,,,0.00,WUHU216WMR100,2013-02-06 08:45:00,
2013-02-06 02:50:00,28.4,17.1,30.11,NNE,22,4.1,5.1,62,0.00,,,0.00,WUHU216WMR100,2013-02-06 08:50:00,
2013-02-06 02:55:00,28.4,17.1,30.11,North,0,4.1,6.3,62,0.00,,,0.00,WUHU216WMR100,2013-02-06 08:55:00,
2013-02-06 03:00:00,28.2,16.9,30.11,NNW,337,5.6,6.3,62,0.00,,,0.00,WUHU216WMR100,2013-02-06 09:00:00,
2013-02-06 03:05:00,28.2,16.9,30.11,NNW,337,4.4,9.2,62,0.00,,,0.00,WUHU216WMR100,2013-02-06 09:05:00,
2013-02-06 03:10:00,28.0,16.7,30.11,NW,315,4.8,9.2,62,0.00,,,0.00,WUHU216WMR100,2013-02-06 09:10:00,
2013-02-06 03:15:00,28.0,16.7,30.11,North,357,3.5,4.8,62,0.00,,,0.00,WUHU216WMR100,2013-02-06 09:15:00,
2013-02-06 03:20:00,27.9,16.6,30.11,NNW,337,2.6,4.8,62,0.00,,,0.00,WUHU216WMR100,2013-02-06 09:20:00,
2013-02-06 03:25:00,27.9,17.0,30.11,NNW,337,3.6,3.6,63,0.00,,,0.00,WUHU216WMR100,2013-02-06 09:25:00,
2013-02-06 03:30:00,27.7,16.8,30.11,NNW,337,2.6,3.6,63,0.00,,,0.00,WUHU216WMR100,2013-02-06 09:30:00,
2013-02-06 03:35:00,27.5,16.6,30.11,NNW,337,0.0,3.6,63,0.00,,,0.00,WUHU216WMR100,2013-02-06 09:35:00,
2013-02-06 03:40:00,27.5,16.6,30.14,NNW,337,2.6,3.3,63,0.00,,,0.00,WUHU216WMR100,2013-02-06 09:40:00,
2013-02-06 03:45:00,27.3,16.4,30.14,NNW,337,0.0,3.3,63,0.00,,,0.00,WUHU216WMR100,2013-02-06 09:45:00,
2013-02-06 03:50:00,27.3,16.4,30.14,West,270,2.6,2.6,63,0.00,,,0.00,WUHU216WMR100,2013-02-06 09:50:00,
2013-02-06 03:55:00,27.1,16.2,30.14,WNW,292,0.0,4.5,63,0.00,,,0.00,WUHU216WMR100,2013-02-06 09:55:00,
2013-02-06 04:00:00,27.1,16.2,30.14,WNW,292,3.3,4.5,63,0.00,,,0.00,WUHU216WMR100,2013-02-06 10:00:00,
2013-02-06 04:05:00,27.1,16.6,30.14,WNW,292,0.0,3.3,64,0.00,,,0.00,WUHU216WMR100,2013-02-06 10:05:00,
2013-02-06 04:10:00,27.0,16.5,30.14,WNW,292,0.0,3.3,64,0.00,,,0.00,WUHU216WMR100,2013-02-06 10:10:00,
2013-02-06 04:15:00,27.0,16.5,30.14,WNW,292,0.0,0.0,64,0.00,,,0.00,WUHU216WMR100,2013-02-06 10:15:00,
2013-02-06 04:20:00,26.8,16.3,30.14,WNW,292,0.0,0.0,64,0.00,,,0.00,WUHU216WMR100,2013-02-06 10:20:00,
2013-02-06 04:25:00,26.6,16.5,30.14,WNW,292,0.0,0.0,65,0.00,,,0.00,WUHU216WMR100,2013-02-06 10:25:00,
2013-02-06 04:30:00,26.2,16.1,30.14,WNW,292,0.0,0.0,65,0.00,,,0.00,WUHU216WMR100,2013-02-06 10:30:00,
2013-02-06 04:35:00,26.1,16.3,30.14,WNW,292,0.0,0.0,66,0.00,,,0.00,WUHU216WMR100,2013-02-06 10:35:00,
2013-02-06 04:40:00,26.1,16.3,30.14,WNW,292,0.0,0.0,66,0.00,,,0.00,WUHU216WMR100,2013-02-06 10:40:00,
2013-02-06 04:45:00,26.1,16.7,30.14,WNW,292,0.0,0.0,67,0.00,,,0.00,WUHU216WMR100,2013-02-06 10:45:00,
2013-02-06 04:50:00,26.1,16.7,30.14,WNW,292,0.0,0.0,67,0.00,,,0.00,WUHU216WMR100,2013-02-06 10:50:00,
2013-02-06 04:55:00,26.1,16.7,30.14,WNW,292,0.0,0.0,67,0.00,,,0.00,WUHU216WMR100,2013-02-06 10:55:00,
2013-02-06 05:00:00,25.9,16.8,30.14,WNW,292,0.0,0.0,68,0.00,,,0.00,WUHU216WMR100,2013-02-06 11:00:00,
2013-02-06 05:05:00,25.9,16.8,30.14,WNW,292,0.0,0.0,68,0.00,,,0.00,WUHU216WMR100,2013-02-06 11:05:00,
2013-02-06 05:10:00,25.9,16.8,30.14,WNW,292,0.0,0.0,68,0.00,,,0.00,WUHU216WMR100,2013-02-06 11:10:00,
2013-02-06 05:15:00,25.7,16.7,30.14,WNW,292,0.0,0.0,68,0.00,,,0.00,WUHU216WMR100,2013-02-06 11:15:00,
2013-02-06 05:20:00,25.7,17.0,30.14,WNW,292,0.0,0.0,69,0.00,,,0.00,WUHU216WMR100,2013-02-06 11:20:00,
2013-02-06 05:25:00,25.7,17.0,30.17,WNW,292,0.0,0.0,69,0.00,,,0.00,WUHU216WMR100,2013-02-06 11:25:00,
2013-02-06 05:30:00,25.5,17.1,30.17,WNW,292,0.0,0.0,70,0.00,,,0.00,WUHU216WMR100,2013-02-06 11:30:00,
2013-02-06 05:35:00,25.5,17.1,30.17,WNW,292,2.1,2.6,70,0.00,,,0.00,WUHU216WMR100,2013-02-06 11:35:00,
2013-02-06 05:40:00,25.5,17.1,30.17,WNW,292,0.0,2.6,70,0.00,,,0.00,WUHU216WMR100,2013-02-06 11:40:00,
2013-02-06 05:45:00,25.3,16.9,30.17,WNW,292,0.0,2.1,70,0.00,,,0.00,WUHU216WMR100,2013-02-06 11:45:00,
2013-02-06 05:50:00,25.3,16.9,30.17,West,279,2.2,2.6,70,0.00,,,0.00,WUHU216WMR100,2013-02-06 11:50:00,
2013-02-06 05:55:00,25.2,16.8,30.17,WNW,292,0.0,2.6,70,0.00,,,0.00,WUHU216WMR100,2013-02-06 11:55:00,
2013-02-06 06:00:00,24.8,16.1,30.17,WNW,292,0.0,2.1,69,0.00,,,0.00,WUHU216WMR100,2013-02-06 12:00:00,
2013-02-06 06:05:00,24.4,15.7,30.17,NNE,22,2.5,2.6,69,0.00,,,0.00,WUHU216WMR100,2013-02-06 12:05:00,
2013-02-06 06:10:00,24.3,15.6,30.17,NNE,22,0.0,2.6,69,0.00,,,0.00,WUHU216WMR100,2013-02-06 12:10:00,
2013-02-06 06:15:00,23.5,14.5,30.17,NNE,22,2.1,2.1,68,0.00,,,0.00,WUHU216WMR100,2013-02-06 12:15:00,
2013-02-06 06:20:00,23.0,14.4,30.17,NNE,22,0.0,2.1,69,0.00,,,0.00,WUHU216WMR100,2013-02-06 12:20:00,
2013-02-06 06:25:00,22.5,13.9,30.17,NNE,22,0.0,0.0,69,0.00,,,0.00,WUHU216WMR100,2013-02-06 12:25:00,
2013-02-06 06:30:00,21.9,13.3,30.17,NNE,22,0.0,0.0,69,0.00,,,0.00,WUHU216WMR100,2013-02-06 12:30:00,
2013-02-06 06:35:00,21.6,13.4,30.17,NNE,22,0.0,0.0,70,0.00,,,0.00,WUHU216WMR100,2013-02-06 12:35:00,
2013-02-06 06:40:00,21.0,13.1,30.17,NNE,22,0.0,0.0,71,0.00,,,0.00,WUHU216WMR100,2013-02-06 12:40:00,
2013-02-06 06:45:00,20.5,12.6,30.17,NNE,22,0.0,0.0,71,0.00,,,0.00,WUHU216WMR100,2013-02-06 12:45:00,
2013-02-06 06:50:00,19.9,12.4,30.17,NNE,22,0.0,0.0,72,0.00,,,0.00,WUHU216WMR100,2013-02-06 12:50:00,
2013-02-06 06:55:00,19.6,12.1,30.20,NNE,22,0.0,0.0,72,0.00,,,0.00,WUHU216WMR100,2013-02-06 12:55:00,
2013-02-06 07:00:00,19.2,12.0,30.20,NNE,22,1.6,1.8,73,0.00,,,0.00,WUHU216WMR100,2013-02-06 13:00:00,
2013-02-06 07:05:00,19.0,12.1,30.20,NNE,22,0.0,1.8,74,0.00,,,0.00,WUHU216WMR100,2013-02-06 13:05:00,
2013-02-06 07:10:00,19.2,12.6,30.20,NNE,22,0.0,0.0,75,0.00,,,0.00,WUHU216WMR100,2013-02-06 13:10:00,
2013-02-06 07:15:00,19.4,13.4,30.20,NNE,22,0.0,0.0,77,0.00,,,0.00,WUHU216WMR100,2013-02-06 13:15:00,
2013-02-06 07:20:00,19.9,14.2,30.20,NNE,22,0.0,0.0,78,0.00,,,0.00,WUHU216WMR100,2013-02-06 13:20:00,
2013-02-06 07:25:00,20.3,14.5,30.20,NNE,22,0.0,0.0,78,0.00,,,0.00,WUHU216WMR100,2013-02-06 13:25:00,
2013-02-06 07:30:00,21.6,15.8,30.20,NNE,22,0.0,0.0,78,0.00,,,0.00,WUHU216WMR100,2013-02-06 13:30:00,
2013-02-06 07:35:00,22.8,17.3,30.20,NNE,22,0.0,0.0,79,0.00,,,0.00,WUHU216WMR100,2013-02-06 13:35:00,
2013-02-06 07:40:00,24.1,18.5,30.20,NNE,22,0.0,0.0,79,0.00,,,0.00,WUHU216WMR100,2013-02-06 13:40:00,
2013-02-06 07:45:00,25.2,19.6,30.20,NNE,22,0.0,0.0,79,0.00,,,0.00,WUHU216WMR100,2013-02-06 13:45:00,
2013-02-06 07:50:00,25.9,20.3,30.20,NNE,22,0.0,0.0,79,0.00,,,0.00,WUHU216WMR100,2013-02-06 13:50:00,
2013-02-06 07:55:00,26.4,21.1,30.20,ESE,112,2.0,3.6,80,0.00,,,0.00,WUHU216WMR100,2013-02-06 13:55:00,
2013-02-06 08:00:00,27.1,20.9,30.20,ESE,112,2.1,3.6,77,0.00,,,0.00,WUHU216WMR100,2013-02-06 14:00:00,
2013-02-06 08:05:00,28.0,21.1,30.20,ESE,112,0.0,3.6,75,0.00,,,0.00,WUHU216WMR100,2013-02-06 14:05:00,
2013-02-06 08:10:00,28.9,21.4,30.20,ESE,112,0.0,3.6,73,0.00,,,0.00,WUHU216WMR100,2013-02-06 14:10:00,
2013-02-06 08:15:00,30.0,22.4,30.20,ESE,112,3.3,3.3,73,0.00,,,0.00,WUHU216WMR100,2013-02-06 14:15:00,
2013-02-06 08:20:00,30.2,21.0,30.20,ESE,112,3.3,4.1,68,0.00,,,0.00,WUHU216WMR100,2013-02-06 14:20:00,
2013-02-06 08:25:00,31.1,20.0,30.20,ESE,112,2.3,4.1,63,0.00,,,0.00,WUHU216WMR100,2013-02-06 14:25:00,
2013-02-06 08:30:00,31.8,20.3,30.20,ESE,112,2.6,3.6,62,0.00,,,0.00,WUHU216WMR100,2013-02-06 14:30:00,
2013-02-06 08:35:00,33.1,21.5,30.20,ESE,112,2.5,2.6,62,0.00,,,0.00,WUHU216WMR100,2013-02-06 14:35:00,
2013-02-06 08:40:00,33.8,21.0,30.20,ESE,112,2.9,4.1,59,0.00,,,0.00,WUHU216WMR100,2013-02-06 14:40:00,
2013-02-06 08:45:00,34.2,18.8,30.20,SE,135,3.3,4.1,53,0.00,,,0.00,WUHU216WMR100,2013-02-06 14:45:00,
2013-02-06 08:50:00,34.3,18.5,30.20,ESE,112,4.5,4.5,52,0.00,,,0.00,WUHU216WMR100,2013-02-06 14:50:00,
2013-02-06 08:55:00,34.9,19.0,30.20,ESE,112,5.6,5.6,52,0.00,,,0.00,WUHU216WMR100,2013-02-06 14:55:00,
2013-02-06 09:00:00,34.7,16.4,30.20,SE,130,4.2,7.1,47,0.00,,,0.00,WUHU216WMR100,2013-02-06 15:00:00,
2013-02-06 09:05:00,35.1,15.7,30.20,SSE,155,5.7,7.1,45,0.00,,,0.00,WUHU216WMR100,2013-02-06 15:05:00,
2013-02-06 09:10:00,34.9,15.0,30.23,SSE,157,11.9,11.9,44,0.04,,,0.04,WUHU216WMR100,2013-02-06 15:10:00,
2013-02-06 09:15:00,35.4,16.0,30.23,SSE,157,9.2,11.9,45,0.04,,,0.04,WUHU216WMR100,2013-02-06 15:15:00,
2013-02-06 09:20:00,35.8,16.9,30.23,South,187,4.2,9.2,46,0.04,,,0.04,WUHU216WMR100,2013-02-06 15:20:00,
2013-02-06 09:25:00,37.0,17.5,30.23,South,188,4.3,9.2,45,0.04,,,0.04,WUHU216WMR100,2013-02-06 15:25:00,
2013-02-06 09:30:00,37.6,18.0,30.23,SSE,157,4.5,6.6,45,0.04,,,0.04,WUHU216WMR100,2013-02-06 15:30:00,
2013-02-06 09:35:00,37.6,17.5,30.23,South,189,2.7,6.3,44,0.04,,,0.04,WUHU216WMR100,2013-02-06 15:35:00,
2013-02-06 09:40:00,38.1,17.4,30.23,SSW,202,4.8,6.3,43,0.04,,,0.04,WUHU216WMR100,2013-02-06 15:40:00,
2013-02-06 09:45:00,37.8,16.6,30.23,SSW,202,4.1,5.6,42,0.04,,,0.04,WUHU216WMR100,2013-02-06 15:45:00,
2013-02-06 09:50:00,37.9,16.7,30.23,SSW,202,5.1,5.6,42,0.04,,,0.04,WUHU216WMR100,2013-02-06 15:50:00,
2013-02-06 09:55:00,38.1,16.8,30.23,SSE,157,7.8,10.7,42,0.04,,,0.04,WUHU216WMR100,2013-02-06 15:55:00,
2013-02-06 10:00:00,38.3,16.5,30.23,SSE,157,5.6,10.7,41,0.04,,,0.04,WUHU216WMR100,2013-02-06 16:00:00,
2013-02-06 10:05:00,38.5,16.6,30.23,ESE,112,11.9,11.9,41,0.04,,,0.04,WUHU216WMR100,2013-02-06 16:05:00,
2013-02-06 10:10:00,38.8,17.5,30.23,SSE,157,6.3,11.9,42,0.00,,,0.04,WUHU216WMR100,2013-02-06 16:10:00,
2013-02-06 10:15:00,39.2,17.3,30.23,WSW,247,5.1,11.9,41,0.00,,,0.04,WUHU216WMR100,2013-02-06 16:15:00,
2013-02-06 10:20:00,39.2,17.3,30.23,SSE,157,5.9,6.3,41,0.00,,,0.04,WUHU216WMR100,2013-02-06 16:20:00,
2013-02-06 10:25:00,39.6,18.2,30.23,SSE,157,4.8,5.9,42,0.00,,,0.04,WUHU216WMR100,2013-02-06 16:25:00,
2013-02-06 10:30:00,39.4,16.9,30.23,SSE,161,4.6,9.6,40,0.00,,,0.04,WUHU216WMR100,2013-02-06 16:30:00,
2013-02-06 10:35:00,39.2,17.3,30.23,SSE,164,4.0,9.6,41,0.00,,,0.04,WUHU216WMR100,2013-02-06 16:35:00,
2013-02-06 10:40:00,39.6,17.6,30.23,SSW,213,4.7,10.4,41,0.00,,,0.04,WUHU216WMR100,2013-02-06 16:40:00,
2013-02-06 10:45:00,40.3,18.3,30.23,SSW,195,3.2,10.4,41,0.00,,,0.04,WUHU216WMR100,2013-02-06 16:45:00,
2013-02-06 10:50:00,40.3,18.3,30.23,South,172,3.3,5.9,41,0.00,,,0.04,WUHU216WMR100,2013-02-06 16:50:00,
2013-02-06 10:55:00,40.5,18.4,30.23,SSE,157,5.6,5.9,41,0.00,,,0.04,WUHU216WMR100,2013-02-06 16:55:00,
2013-02-06 11:00:00,40.3,17.7,30.23,SSW,202,4.8,5.9,40,0.00,,,0.04,WUHU216WMR100,2013-02-06 17:00:00,
2013-02-06 11:05:00,39.9,17.9,30.23,SSE,157,4.7,6.6,41,0.00,,,0.04,WUHU216WMR100,2013-02-06 17:05:00,
2013-02-06 11:10:00,39.9,17.9,30.23,SSW,199,4.5,6.6,41,0.00,,,0.04,WUHU216WMR100,2013-02-06 17:10:00,
2013-02-06 11:15:00,39.7,17.7,30.23,NW,315,5.6,5.9,41,0.00,,,0.04,WUHU216WMR100,2013-02-06 17:15:00,
2013-02-06 11:20:00,39.6,17.6,30.23,WSW,247,4.8,10.4,41,0.00,,,0.04,WUHU216WMR100,2013-02-06 17:20:00,
2013-02-06 11:25:00,39.7,17.7,30.20,South,186,6.4,10.4,41,0.00,,,0.04,WUHU216WMR100,2013-02-06 17:25:00,
2013-02-06 11:30:00,39.2,17.3,30.20,SE,135,6.3,8.1,41,0.00,,,0.04,WUHU216WMR100,2013-02-06 17:30:00,
2013-02-06 11:35:00,38.7,17.4,30.20,SSW,202,5.1,8.1,42,0.00,,,0.04,WUHU216WMR100,2013-02-06 17:35:00,
2013-02-06 11:40:00,39.0,18.2,30.20,SSE,157,5.6,6.6,43,0.00,,,0.04,WUHU216WMR100,2013-02-06 17:40:00,
2013-02-06 11:45:00,38.7,17.4,30.20,SW,227,8.5,12.2,42,0.00,,,0.04,WUHU216WMR100,2013-02-06 17:45:00,
2013-02-06 11:50:00,38.7,18.0,30.20,SSE,157,6.6,12.2,43,0.00,,,0.04,WUHU216WMR100,2013-02-06 17:50:00,
2013-02-06 11:55:00,38.7,17.4,30.20,SSW,202,5.6,9.9,42,0.00,,,0.04,WUHU216WMR100,2013-02-06 17:55:00,
2013-02-06 12:00:00,38.8,18.0,30.20,SSE,154,3.6,9.9,43,0.00,,,0.04,WUHU216WMR100,2013-02-06 18:00:00,
2013-02-06 12:05:00,39.2,17.8,30.20,WSW,244,7.5,10.4,42,0.00,,,0.04,WUHU216WMR100,2013-02-06 18:05:00,
2013-02-06 12:10:00,39.4,18.0,30.20,SSE,157,6.3,10.7,42,0.00,,,0.04,WUHU216WMR100,2013-02-06 18:10:00,
2013-02-06 12:15:00,40.3,19.4,30.20,ESE,112,4.9,10.7,43,0.00,,,0.04,WUHU216WMR100,2013-02-06 18:15:00,
2013-02-06 12:20:00,40.3,18.8,30.20,SSE,156,6.7,9.2,42,0.00,,,0.04,WUHU216WMR100,2013-02-06 18:20:00,
2013-02-06 12:25:00,40.1,18.7,30.20,SE,136,5.1,9.2,42,0.00,,,0.04,WUHU216WMR100,2013-02-06 18:25:00,
2013-02-06 12:30:00,40.3,18.3,30.20,South,180,9.9,10.4,41,0.00,,,0.04,WUHU216WMR100,2013-02-06 18:30:00,
2013-02-06 12:35:00,41.0,19.5,30.20,SE,135,4.8,10.4,42,0.00,,,0.04,WUHU216WMR100,2013-02-06 18:35:00,
2013-02-06 12:40:00,41.4,19.8,30.20,SSE,157,4.8,9.9,42,0.00,,,0.04,WUHU216WMR100,2013-02-06 18:40:00,
2013-02-06 12:45:00,41.4,19.3,30.20,South,180,8.9,8.9,41,0.00,,,0.04,WUHU216WMR100,2013-02-06 18:45:00,
2013-02-06 12:50:00,41.5,19.4,30.20,WSW,247,9.9,9.9,41,0.00,,,0.04,WUHU216WMR100,2013-02-06 18:50:00,
2013-02-06 12:55:00,40.8,18.7,30.20,WSW,257,7.0,12.5,41,0.00,,,0.04,WUHU216WMR100,2013-02-06 18:55:00,
2013-02-06 13:00:00,41.2,19.1,30.20,South,187,4.9,12.5,41,0.00,,,0.04,WUHU216WMR100,2013-02-06 19:00:00,
2013-02-06 13:05:00,41.4,18.7,30.20,SW,225,7.8,8.1,40,0.00,,,0.04,WUHU216WMR100,2013-02-06 19:05:00,
2013-02-06 13:10:00,41.5,18.8,30.20,NW,315,9.6,9.6,40,0.00,,,0.04,WUHU216WMR100,2013-02-06 19:10:00,
2013-02-06 13:15:00,41.7,19.5,30.20,West,270,4.1,9.6,41,0.00,,,0.04,WUHU216WMR100,2013-02-06 19:15:00,
2013-02-06 13:20:00,42.3,20.1,30.20,SW,225,8.9,9.6,41,0.00,,,0.04,WUHU216WMR100,2013-02-06 19:20:00,
2013-02-06 13:25:00,42.4,20.2,30.20,SE,144,5.2,8.9,41,0.04,,,0.08,WUHU216WMR100,2013-02-06 19:25:00,
2013-02-06 13:30:00,42.6,20.3,30.20,SSE,149,7.0,9.6,41,0.04,,,0.08,WUHU216WMR100,2013-02-06 19:30:00,
2013-02-06 13:35:00,42.8,19.9,30.20,SW,225,6.6,9.6,40,0.04,,,0.08,WUHU216WMR100,2013-02-06 19:35:00,
2013-02-06 13:40:00,42.8,19.9,30.20,SSW,192,6.2,7.1,40,0.04,,,0.08,WUHU216WMR100,2013-02-06 19:40:00,
2013-02-06 13:45:00,43.0,20.1,30.20,SSW,208,7.7,8.1,40,0.04,,,0.08,WUHU216WMR100,2013-02-06 19:45:00,
2013-02-06 13:50:00,42.6,20.3,30.20,SSE,157,7.1,12.2,41,0.04,,,0.08,WUHU216WMR100,2013-02-06 19:50:00,
2013-02-06 13:55:00,42.4,19.6,30.17,ESE,112,5.6,12.2,40,0.04,,,0.08,WUHU216WMR100,2013-02-06 19:55:00,
2013-02-06 14:00:00,42.4,20.2,30.17,SSE,157,6.6,7.1,41,0.04,,,0.08,WUHU216WMR100,2013-02-06 20:00:00,
2013-02-06 14:05:00,42.8,20.5,30.17,South,174,4.0,6.6,41,0.04,,,0.08,WUHU216WMR100,2013-02-06 20:05:00,
2013-02-06 14:10:00,42.4,20.2,30.20,SSW,202,9.9,9.9,41,0.04,,,0.08,WUHU216WMR100,2013-02-06 20:10:00,
2013-02-06 14:15:00,42.4,20.2,30.20,SSE,160,7.9,9.9,41,0.04,,,0.08,WUHU216WMR100,2013-02-06 20:15:00,
2013-02-06 14:20:00,42.1,19.9,30.20,SSE,161,5.0,8.1,41,0.04,,,0.08,WUHU216WMR100,2013-02-06 20:20:00,
2013-02-06 14:25:00,41.9,19.7,30.17,South,178,6.0,6.6,41,0.00,,,0.08,WUHU216WMR100,2013-02-06 20:25:00,
2013-02-06 14:30:00,41.9,20.3,30.17,SE,135,7.1,7.1,42,0.00,,,0.08,WUHU216WMR100,2013-02-06 20:30:00,
2013-02-06 14:35:00,42.4,20.7,30.17,South,188,5.0,7.1,42,0.00,,,0.08,WUHU216WMR100,2013-02-06 20:35:00,
2013-02-06 14:40:00,43.0,20.7,30.17,SSE,154,6.6,9.2,41,0.00,,,0.08,WUHU216WMR100,2013-02-06 20:40:00,
2013-02-06 14:45:00,43.3,21.6,30.17,South,180,5.1,9.2,42,0.00,,,0.08,WUHU216WMR100,2013-02-06 20:45:00,
2013-02-06 14:50:00,43.0,20.7,30.17,SSW,202,4.8,7.1,41,0.05,,,0.13,WUHU216WMR100,2013-02-06 20:50:00,
2013-02-06 14:56:00,42.8,20.5,30.17,SSE,157,5.6,6.3,41,0.05,,,0.13,WUHU216WMR100,2013-02-06 20:56:00,
2013-02-06 15:01:00,42.3,20.7,30.17,SSE,160,4.8,8.1,42,0.05,,,0.13,WUHU216WMR100,2013-02-06 21:01:00,
2013-02-06 15:06:00,42.3,20.7,30.17,SSE,157,5.9,8.1,42,0.05,,,0.13,WUHU216WMR100,2013-02-06 21:06:00,
2013-02-06 15:11:00,42.1,20.5,30.17,South,170,6.5,11.9,42,0.05,,,0.13,WUHU216WMR100,2013-02-06 21:11:00,
2013-02-06 15:16:00,41.9,20.3,30.17,SSW,212,6.3,11.9,42,0.05,,,0.13,WUHU216WMR100,2013-02-06 21:16:00,
2013-02-06 15:21:00,41.2,19.7,30.17,SSW,200,6.4,8.9,42,0.05,,,0.13,WUHU216WMR100,2013-02-06 21:21:00,
2013-02-06 15:26:00,40.5,19.6,30.17,South,173,4.2,8.9,43,0.05,,,0.13,WUHU216WMR100,2013-02-06 21:26:00,
2013-02-06 15:31:00,40.3,20.0,30.17,South,180,5.1,6.3,44,0.05,,,0.13,WUHU216WMR100,2013-02-06 21:31:00,
2013-02-06 15:36:00,41.2,21.3,30.17,South,180,7.1,7.1,45,0.05,,,0.13,WUHU216WMR100,2013-02-06 21:36:00,
2013-02-06 15:41:00,40.8,21.0,30.17,SW,219,4.4,7.1,45,0.05,,,0.13,WUHU216WMR100,2013-02-06 21:41:00,
2013-02-06 15:46:00,40.6,20.8,30.17,SSW,202,7.1,7.1,45,0.00,,,0.13,WUHU216WMR100,2013-02-06 21:46:00,
2013-02-06 15:51:00,40.5,21.2,30.17,SSE,157,8.1,8.1,46,0.00,,,0.13,WUHU216WMR100,2013-02-06 21:51:00,
2013-02-06 15:56:00,40.3,21.0,30.17,SSW,196,6.9,12.5,46,0.00,,,0.13,WUHU216WMR100,2013-02-06 21:56:00,
2013-02-06 16:01:00,39.9,20.7,30.17,South,180,4.8,12.5,46,0.00,,,0.13,WUHU216WMR100,2013-02-06 22:01:00,
2013-02-06 16:06:00,38.8,20.7,30.17,South,183,5.3,7.1,48,0.00,,,0.13,WUHU216WMR100,2013-02-06 22:06:00,
2013-02-06 16:11:00,38.5,20.9,30.17,South,187,4.2,7.1,49,0.00,,,0.13,WUHU216WMR100,2013-02-06 22:11:00,
2013-02-06 16:16:00,38.5,21.4,30.17,SSW,192,2.7,6.6,50,0.00,,,0.13,WUHU216WMR100,2013-02-06 22:16:00,
2013-02-06 16:21:00,38.5,21.9,30.17,South,180,4.1,6.6,51,0.00,,,0.13,WUHU216WMR100,2013-02-06 22:21:00,
2013-02-06 16:26:00,38.3,21.7,30.17,SSE,167,4.2,7.8,51,0.00,,,0.13,WUHU216WMR100,2013-02-06 22:26:00,
2013-02-06 16:31:00,37.9,21.8,30.17,SE,132,8.7,9.2,52,0.00,,,0.13,WUHU216WMR100,2013-02-06 22:31:00,
2013-02-06 16:36:00,37.4,21.3,30.17,SSE,157,4.5,9.2,52,0.00,,,0.13,WUHU216WMR100,2013-02-06 22:36:00,
2013-02-06 16:41:00,37.0,21.4,30.17,SSE,163,4.0,5.9,53,0.00,,,0.13,WUHU216WMR100,2013-02-06 22:41:00,
2013-02-06 16:46:00,36.7,21.6,30.17,SSE,157,4.5,5.6,54,0.00,,,0.13,WUHU216WMR100,2013-02-06 22:46:00,
2013-02-06 16:51:00,36.3,21.7,30.17,SSE,157,5.9,5.9,55,0.00,,,0.13,WUHU216WMR100,2013-02-06 22:51:00,
2013-02-06 16:56:00,35.8,20.8,30.17,SSE,157,2.0,5.9,54,0.00,,,0.13,WUHU216WMR100,2013-02-06 22:56:00,
2013-02-06 17:01:00,35.6,21.0,30.17,SSE,157,3.3,5.9,55,0.00,,,0.13,WUHU216WMR100,2013-02-06 23:01:00,
2013-02-06 17:06:00,35.4,20.8,30.17,SE,142,2.3,3.3,55,0.00,,,0.13,WUHU216WMR100,2013-02-06 23:06:00,
2013-02-06 17:11:00,35.1,21.0,30.17,SSE,157,2.1,3.3,56,0.00,,,0.13,WUHU216WMR100,2013-02-06 23:11:00,
2013-02-06 17:16:00,34.9,20.8,30.17,SSE,157,0.0,2.1,56,0.00,,,0.13,WUHU216WMR100,2013-02-06 23:16:00,
2013-02-06 17:21:00,34.5,20.4,30.17,SSE,157,1.8,1.8,56,0.00,,,0.13,WUHU216WMR100,2013-02-06 23:21:00,
2013-02-06 17:26:00,34.5,20.9,30.17,SSE,157,3.6,3.6,57,0.00,,,0.13,WUHU216WMR100,2013-02-06 23:26:00,
2013-02-06 17:31:00,34.3,21.9,30.17,SSE,157,4.8,4.8,60,0.00,,,0.13,WUHU216WMR100,2013-02-06 23:31:00,
2013-02-06 17:36:00,34.3,22.7,30.17,SSE,151,4.3,5.6,62,0.00,,,0.13,WUHU216WMR100,2013-02-06 23:36:00,
2013-02-06 17:41:00,34.3,22.3,30.17,ESE,112,4.8,5.6,61,0.00,,,0.13,WUHU216WMR100,2013-02-06 23:41:00,
2013-02-06 17:46:00,34.3,22.7,30.17,SSE,157,2.6,4.8,62,0.00,,,0.13,WUHU216WMR100,2013-02-06 23:46:00,
2013-02-06 17:51:00,34.2,23.0,30.17,SSE,157,5.6,5.6,63,0.00,,,0.13,WUHU216WMR100,2013-02-06 23:51:00,
2013-02-06 17:56:00,34.2,23.0,30.17,SSE,157,6.3,6.3,63,0.00,,,0.13,WUHU216WMR100,2013-02-06 23:56:00,
2013-02-06 18:01:00,34.2,23.4,30.17,South,180,3.6,6.3,64,0.00,,,0.13,WUHU216WMR100,2013-02-07 00:01:00,
2013-02-06 18:06:00,34.0,23.2,30.17,SSE,157,5.1,6.3,64,0.00,,,0.13,WUHU216WMR100,2013-02-07 00:06:00,
2013-02-06 18:11:00,34.0,23.5,30.17,SSE,157,4.9,5.1,65,0.00,,,0.13,WUHU216WMR100,2013-02-07 00:11:00,
2013-02-06 18:16:00,34.0,23.2,30.17,SSE,157,4.5,5.1,64,0.00,,,0.13,WUHU216WMR100,2013-02-07 00:16:00,
2013-02-06 18:21:00,34.0,23.5,30.17,SSE,156,5.8,6.3,65,0.00,,,0.13,WUHU216WMR100,2013-02-07 00:21:00,
2013-02-06 18:26:00,34.0,23.5,30.17,SSE,157,9.9,9.9,65,0.00,,,0.13,WUHU216WMR100,2013-02-07 00:26:00,
2013-02-06 18:31:00,34.0,23.5,30.17,SSE,147,5.5,9.9,65,0.00,,,0.13,WUHU216WMR100,2013-02-07 00:31:00,
2013-02-06 18:36:00,34.0,23.2,30.14,SSE,157,5.6,9.9,64,0.00,,,0.13,WUHU216WMR100,2013-02-07 00:36:00,
2013-02-06 18:41:00,34.0,23.2,30.14,ESE,120,7.5,9.2,64,0.00,,,0.13,WUHU216WMR100,2013-02-07 00:41:00,
2013-02-06 18:46:00,34.0,23.2,30.14,SSE,163,3.4,9.6,64,0.00,,,0.13,WUHU216WMR100,2013-02-07 00:46:00,
2013-02-06 18:51:00,34.0,23.2,30.14,SE,138,4.7,9.6,64,0.00,,,0.13,WUHU216WMR100,2013-02-07 00:51:00,
2013-02-06 18:56:00,34.0,23.2,30.14,SE,132,5.0,7.1,64,0.00,,,0.13,WUHU216WMR100,2013-02-07 00:56:00,
2013-02-06 19:01:00,34.0,23.2,30.14,SSE,157,7.3,9.2,64,0.00,,,0.13,WUHU216WMR100,2013-02-07 01:01:00,
2013-02-06 19:06:00,34.0,23.2,30.14,South,172,7.4,9.6,64,0.00,,,0.13,WUHU216WMR100,2013-02-07 01:06:00,
2013-02-06 19:11:00,34.0,23.2,30.14,SSE,152,6.2,9.6,64,0.00,,,0.13,WUHU216WMR100,2013-02-07 01:11:00,
2013-02-06 19:17:00,34.0,23.2,30.14,SSE,157,5.6,7.1,64,0.00,,,0.13,WUHU216WMR100,2013-02-07 01:17:00,
2013-02-06 19:22:00,34.0,23.2,30.14,SSE,161,4.5,7.1,64,0.00,,,0.13,WUHU216WMR100,2013-02-07 01:22:00,
2013-02-06 19:27:00,33.8,23.0,30.14,SSE,149,3.7,7.1,64,0.00,,,0.13,WUHU216WMR100,2013-02-07 01:27:00,
2013-02-06 19:32:00,34.0,23.5,30.14,SSE,157,8.9,10.4,65,0.00,,,0.13,WUHU216WMR100,2013-02-07 01:32:00,
2013-02-06 19:37:00,34.0,23.5,30.14,SSE,155,6.4,12.9,65,0.00,,,0.13,WUHU216WMR100,2013-02-07 01:37:00,
2013-02-06 19:41:00,33.8,23.7,30.14,SSE,157,10.4,12.9,66,0.00,,,0.13,WUHU216WMR100,2013-02-07 01:41:00,
2013-02-06 19:47:00,33.8,23.7,30.14,SSW,202,8.9,10.4,66,0.00,,,0.13,WUHU216WMR100,2013-02-07 01:47:00,
2013-02-06 19:52:00,33.8,23.7,30.14,South,191,4.1,10.4,66,0.00,,,0.13,WUHU216WMR100,2013-02-07 01:52:00,
2013-02-06 19:57:00,33.8,24.1,30.14,South,184,6.8,8.9,67,0.00,,,0.13,WUHU216WMR100,2013-02-07 01:57:00,
2013-02-06 20:02:00,33.8,24.1,30.14,SSE,157,6.6,8.1,67,0.00,,,0.13,WUHU216WMR100,2013-02-07 02:02:00,
2013-02-06 20:07:00,33.6,24.2,30.14,ENE,64,5.1,12.5,68,0.00,,,0.13,WUHU216WMR100,2013-02-07 02:07:00,
2013-02-06 20:12:00,33.8,24.4,30.14,SSW,192,8.4,12.5,68,0.00,,,0.13,WUHU216WMR100,2013-02-07 02:12:00,
2013-02-06 20:17:00,33.8,24.1,30.14,South,180,8.9,9.2,67,0.00,,,0.13,WUHU216WMR100,2013-02-07 02:17:00,
2013-02-06 20:22:00,33.8,24.4,30.14,South,180,5.1,8.9,68,0.00,,,0.13,WUHU216WMR100,2013-02-07 02:22:00,
2013-02-06 20:27:00,33.8,24.4,30.14,South,180,10.4,10.4,68,0.00,,,0.13,WUHU216WMR100,2013-02-07 02:27:00,
2013-02-06 20:32:00,33.8,24.4,30.14,SE,127,5.2,10.4,68,0.00,,,0.13,WUHU216WMR100,2013-02-07 02:32:00,
2013-02-06 20:37:00,33.8,24.4,30.14,SSE,157,6.1,10.4,68,0.00,,,0.13,WUHU216WMR100,2013-02-07 02:37:00,
2013-02-06 20:42:00,33.8,24.4,30.14,SE,142,10.4,13.4,68,0.00,,,0.13,WUHU216WMR100,2013-02-07 02:42:00,
2013-02-06 20:47:00,33.6,24.6,30.14,SSE,157,10.4,13.4,69,0.00,,,0.13,WUHU216WMR100,2013-02-07 02:47:00,
2013-02-06 20:52:00,33.6,24.6,30.11,South,169,7.3,10.4,69,0.00,,,0.13,WUHU216WMR100,2013-02-07 02:52:00,
2013-02-06 20:57:00,33.6,24.6,30.11,SSE,157,8.1,10.4,69,0.00,,,0.13,WUHU216WMR100,2013-02-07 02:57:00,
2013-02-06 21:02:00,33.6,24.6,30.11,SSW,202,14.0,14.0,69,0.00,,,0.13,WUHU216WMR100,2013-02-07 03:02:00,
2013-02-06 21:07:00,33.6,24.6,30.11,SSE,148,11.7,14.7,69,0.00,,,0.13,WUHU216WMR100,2013-02-07 03:07:00,
2013-02-06 21:12:00,33.6,24.6,30.11,SSE,157,9.9,14.7,69,0.00,,,0.13,WUHU216WMR100,2013-02-07 03:12:00,
2013-02-06 21:17:00,33.6,24.6,30.11,SSE,157,5.1,9.9,69,0.00,,,0.13,WUHU216WMR100,2013-02-07 03:17:00,
2013-02-06 21:22:00,33.4,24.4,30.14,SSE,157,7.8,9.9,69,0.00,,,0.13,WUHU216WMR100,2013-02-07 03:22:00,
2013-02-06 21:27:00,33.4,24.7,30.14,SSE,157,10.4,10.7,70,0.00,,,0.13,WUHU216WMR100,2013-02-07 03:27:00,
2013-02-06 21:32:00,33.4,24.7,30.14,SSE,157,5.9,11.9,70,0.00,,,0.13,WUHU216WMR100,2013-02-07 03:32:00,
2013-02-06 21:37:00,33.4,24.7,30.14,SSE,157,5.1,11.9,70,0.00,,,0.13,WUHU216WMR100,2013-02-07 03:37:00,
2013-02-06 21:42:00,33.4,24.7,30.14,SSE,156,10.1,14.0,70,0.00,,,0.13,WUHU216WMR100,2013-02-07 03:42:00,
2013-02-06 21:47:00,33.4,24.7,30.14,SSE,157,16.2,16.2,70,0.00,,,0.13,WUHU216WMR100,2013-02-07 03:47:00,
2013-02-06 21:52:00,33.4,25.1,30.14,ESE,112,5.9,16.2,71,0.00,,,0.13,WUHU216WMR100,2013-02-07 03:52:00,
2013-02-06 21:57:00,33.4,25.1,30.14,SSE,149,4.9,12.5,71,0.00,,,0.13,WUHU216WMR100,2013-02-07 03:57:00,
2013-02-06 22:02:00,33.4,25.1,30.14,South,180,7.1,7.1,71,0.00,,,0.13,WUHU216WMR100,2013-02-07 04:02:00,
2013-02-06 22:07:00,33.4,25.1,30.14,SSE,157,5.1,7.1,71,0.00,,,0.13,WUHU216WMR100,2013-02-07 04:07:00,
2013-02-06 22:12:00,33.4,25.1,30.14,SSE,157,5.6,7.1,71,0.00,,,0.13,WUHU216WMR100,2013-02-07 04:12:00,
2013-02-06 22:17:00,33.3,25.0,30.14,SSW,209,6.1,7.1,71,0.00,,,0.13,WUHU216WMR100,2013-02-07 04:17:00,
2013-02-06 22:22:00,33.3,25.0,30.14,SSW,202,5.1,7.1,71,0.00,,,0.13,WUHU216WMR100,2013-02-07 04:22:00,
2013-02-06 22:27:00,33.3,25.0,30.14,SSE,165,6.9,9.6,71,0.00,,,0.13,WUHU216WMR100,2013-02-07 04:27:00,
2013-02-06 22:32:00,33.3,25.3,30.14,SSE,157,3.6,9.9,72,0.00,,,0.13,WUHU216WMR100,2013-02-07 04:32:00,
2013-02-06 22:37:00,33.3,25.3,30.14,South,169,4.9,9.9,72,0.00,,,0.13,WUHU216WMR100,2013-02-07 04:37:00,
2013-02-06 22:42:00,33.3,25.3,30.14,South,190,3.9,5.1,72,0.00,,,0.13,WUHU216WMR100,2013-02-07 04:42:00,
2013-02-06 22:47:00,33.3,25.3,30.14,WSW,247,5.9,11.9,72,0.00,,,0.13,WUHU216WMR100,2013-02-07 04:47:00,
2013-02-06 22:52:00,33.3,25.6,30.14,South,180,5.1,11.9,73,0.00,,,0.13,WUHU216WMR100,2013-02-07 04:52:00,
2013-02-06 22:57:00,33.1,25.4,30.14,SSW,200,5.8,9.2,73,0.00,,,0.13,WUHU216WMR100,2013-02-07 04:57:00,
2013-02-06 23:00:00,33.1,25.4,30.14,SSE,168,6.9,9.2,73,0.00,,,0.13,WUHU216WMR100,2013-02-07 05:00:00,
2013-02-06 23:02:00,33.1,25.4,30.14,SSE,157,8.9,9.2,73,0.00,,,0.13,WUHU216WMR100,2013-02-07 05:02:00,
2013-02-06 23:07:00,33.1,25.4,30.14,SSE,166,5.7,8.9,73,0.00,,,0.13,WUHU216WMR100,2013-02-07 05:07:00,
2013-02-06 23:12:00,32.9,25.2,30.14,SSE,157,3.3,8.9,73,0.00,,,0.13,WUHU216WMR100,2013-02-07 05:12:00,
2013-02-06 23:17:00,32.9,25.2,30.14,South,180,6.0,7.8,73,0.00,,,0.13,WUHU216WMR100,2013-02-07 05:17:00,
2013-02-06 23:22:00,32.9,25.6,30.11,SSE,157,5.1,7.8,74,0.00,,,0.13,WUHU216WMR100,2013-02-07 05:22:00,
2013-02-06 23:27:00,32.7,25.4,30.11,South,186,3.7,6.6,74,0.00,,,0.13,WUHU216WMR100,2013-02-07 05:27:00,
2013-02-06 23:32:00,32.7,25.1,30.11,SSE,157,5.0,6.6,73,0.00,,,0.13,WUHU216WMR100,2013-02-07 05:32:00,
2013-02-06 23:37:00,32.7,25.4,30.14,SSE,157,5.1,6.6,74,0.00,,,0.13,WUHU216WMR100,2013-02-07 05:37:00,
2013-02-06 23:42:00,32.5,25.2,30.14,SSW,202,7.8,7.8,74,0.00,,,0.13,WUHU216WMR100,2013-02-07 05:42:00,
2013-02-06 23:47:00,32.5,25.5,30.14,South,180,6.6,7.8,75,0.00,,,0.13,WUHU216WMR100,2013-02-07 05:47:00,
2013-02-06 23:52:00,32.5,25.5,30.14,SSE,157,9.9,10.4,75,0.00,,,0.13,WUHU216WMR100,2013-02-07 05:52:00,
2013-02-06 23:57:00,32.5,25.5,30.14,ESE,120,4.7,10.4,75,0.00,,,0.13,WUHU216WMR100,2013-02-07 05:57:00,